Farmington, NM

9:14 AM MST on February 09, 2016 (GMT -0700)
Four Corners Regional

Weather History for KFMN - August, 2014

Change the Weather History Date:

Friday, August 22, 2014

  Actual Average Record
Temperature  
Mean Temperature 66 °F -  
Max Temperature 75 °F 86 °F 98 °F (2007)
Min Temperature 57 °F 57 °F 53 °F (2004)
Cooling Degree Days 1    
Growing Degree Days 16 (Base 50)    
Moisture  
Dew Point 54 °F    
Average Humidity 76    
Maximum Humidity 90    
Minimum Humidity 43    
Precipitation  
Precipitation 0.35 in - - ()
Sea Level Pressure  
Sea Level Pressure 30.04 in    
Wind  
Wind Speed 10 mph (NE)    
Max Wind Speed 21 mph    
Max Gust Speed 25 mph    
Visibility 9 miles    
Events Rain , Thunderstorm    
Averages and records for this station are not official NWS values.
T = Trace of Precipitation, MM = Missing Value Source: NWS Daily Summary

Daily Weather History Graph

Daily Weather History Graph

Search for Another Location

Airport or City:

Trip Planner

Search our weather history database for the weather conditions in past years. The results will help you decide how hot, cold, wet, or windy it might be!

Date:

Astronomy

Aug. 22, 2014 Rise Set
Actual Time 6:35 AM MDT 7:54 PM MDT
Civil Twilight 6:08 AM MDT 8:21 PM MDT
Nautical Twilight 5:36 AM MDT 8:54 PM MDT
Astronomical Twilight 5:02 AM MDT 9:27 PM MDT
Moon 4:03 AM MDT (8/22) 6:04 PM MDT (8/22)
Length of Visible Light 14h 13m
Length of Day
13h 19m
Waning Crescent, 7% of the Moon is Illuminated
Aug 22
Waning Crescent
Aug 25
New
Sep 2
First Quarter
Sep 8
Full
Sep 15
Last Quarter

Hourly Weather History & Observations

Time (MDT) Temp. Dew Point Humidity Pressure Visibility Wind Dir Wind Speed Gust Speed Precip Events Conditions
12:53 AM 66.0 °F 48.9 °F 54% 29.97 in 10.0 mi WNW 16.1 mph - 0.00 in   Overcast
1:53 AM 63.0 °F 52.0 °F 67% 30.01 in 10.0 mi West 12.7 mph 21.9 mph 0.00 in Rain Light Rain
3:53 AM 59.0 °F 54.0 °F 83% 29.99 in 10.0 mi North 6.9 mph - 0.02 in   Overcast
4:53 AM 57.9 °F 55.0 °F 90% 30.01 in 10.0 mi Calm Calm - 0.02 in   Overcast
6:53 AM 59.0 °F 55.9 °F 90% 30.03 in 10.0 mi East 3.5 mph - 0.00 in Rain Light Rain
7:53 AM 59.0 °F 55.9 °F 90% 30.04 in 10.0 mi East 5.8 mph - 0.01 in   Mostly Cloudy
9:53 AM 63.0 °F 55.0 °F 75% 30.05 in 10.0 mi ESE 4.6 mph - N/A   Clear
10:53 AM 64.9 °F 54.0 °F 68% 30.04 in 10.0 mi East 5.8 mph - N/A   Clear
11:53 AM 66.9 °F 54.0 °F 63% 30.04 in 10.0 mi East 8.1 mph - N/A   Clear
12:53 PM 73.0 °F 53.1 °F 49% 30.00 in 10.0 mi ESE 11.5 mph - N/A   Partly Cloudy
1:53 PM 75.0 °F 51.1 °F 43% 29.98 in 10.0 mi East 16.1 mph 24.2 mph N/A   Partly Cloudy
3:10 PM 61.0 °F 54.0 °F 78% 30.15 in 10.0 mi West 20.7 mph 25.3 mph 0.00 in Rain Light Rain
3:22 PM 57.9 °F 54.0 °F 87% 30.16 in 2.0 mi West 13.8 mph 25.3 mph 0.11 in Rain , Thunderstorm Heavy Thunderstorms and Rain
3:34 PM 57.9 °F 55.0 °F 90% 30.16 in 1.8 mi WNW 12.7 mph - 0.27 in Rain , Thunderstorm Thunderstorms and Rain
3:39 PM 57.9 °F 55.0 °F 90% 30.15 in 3.0 mi WNW 12.7 mph - 0.30 in Rain , Thunderstorm Heavy Thunderstorms and Rain
3:51 PM 59.0 °F 55.4 °F 88% 30.15 in 10.0 mi WNW 11.5 mph - 0.30 in Rain , Thunderstorm Light Rain
3:53 PM 59.0 °F 55.0 °F 87% 30.05 in 10.0 mi WNW 10.4 mph - 0.30 in Rain , Thunderstorm Light Rain
4:18 PM 57.9 °F 55.0 °F 90% 30.16 in 4.0 mi NNW 4.6 mph - 0.04 in Rain Rain
4:53 PM 59.0 °F 55.0 °F 87% 30.01 in 10.0 mi NNE 11.5 mph - 0.07 in Rain Light Rain
5:53 PM 62.1 °F 55.9 °F 80% 30.00 in 10.0 mi ENE 9.2 mph - 0.00 in   Mostly Cloudy
6:53 PM 61.0 °F 54.0 °F 78% 30.01 in 10.0 mi East 13.8 mph - N/A   Mostly Cloudy
7:53 PM 61.0 °F 55.0 °F 81% 30.01 in 10.0 mi ENE 10.4 mph 18.4 mph N/A   Overcast
8:53 PM 60.1 °F 54.0 °F 80% 30.01 in 10.0 mi ENE 8.1 mph - N/A   Clear
9:53 PM 59.0 °F 53.1 °F 81% 30.02 in 10.0 mi East 10.4 mph - N/A   Mostly Cloudy
10:53 PM 57.9 °F 52.0 °F 81% 30.00 in 10.0 mi East 8.1 mph - N/A   Scattered Clouds
11:53 PM 57.0 °F 52.0 °F 83% 30.00 in 10.0 mi East 8.1 mph - N/A   Overcast